Nome, AK

4:32 AM AKDT on June 26, 2017 (GMT -0800)
Nome

Weather History for PAOM - March, 2014

Change the Weather History Date:

Thursday, March 20, 2014

  Actual Average Record
Temperature  
Mean Temperature 16 °F 10 °F  
Max Temperature 31 °F 19 °F 40 °F (1981)
Min Temperature 0 °F 2 °F -43 °F (1975)
Degree Days  
Heating Degree Days 49 55  
Month to date heating degree days 1124 1107  
Since 1 July heating degree days 9270 10386  
Cooling Degree Days 0 0  
Month to date cooling degree days 0 0  
Year to date cooling degree days 0 0  
Moisture  
Dew Point 7 °F    
Average Humidity 0    
Maximum Humidity 0    
Minimum Humidity 0    
Precipitation  
Precipitation 0.00 in 0.01 in 0.40 in (1936)
Month to date precipitation 0.53 0.43  
Year to date precipitation 2.70 2.30  
Snow  
Snow 0.00 in 0.30 in 4.50 in (1936)
Month to date snowfall 12.3 6.1  
Since 1 July snowfall 66.6 62.8  
Snow Depth 18.00 in    
Sea Level Pressure  
Sea Level Pressure 30.50 in    
Wind  
Wind Speed 8 mph (ENE)    
Max Wind Speed 17 mph    
Max Gust Speed 20 mph    
Visibility 10 miles    
Events      
T = Trace of Precipitation, MM = Missing Value Source: NWS Daily Summary

Daily Weather History Graph

Daily Weather History Graph

Search for Another Location

Airport or City:

Trip Planner

Search our weather history database for the weather conditions in past years. The results will help you decide how hot, cold, wet, or windy it might be!

Date:

Astronomy

Mar. 20, 2014 Rise Set
Actual Time 9:01 AM AKDT 9:18 PM AKDT
Civil Twilight 8:13 AM AKDT 10:07 PM AKDT
Nautical Twilight 7:13 AM AKDT 11:06 PM AKDT
Astronomical Twilight 6:06 AM AKDT 12:15 AM AKDT
Moon 2:11 AM AKDT (3/20) 9:48 AM AKDT (3/20)
Length of Visible Light 13h 54m
Length of Day
12h 17m
Waning Gibbous, 83% of the Moon is Illuminated
Mar 20
Waning Gibbous
Mar 23
Last Quarter
Mar 30
New
Apr 7
First Quarter
Apr 14
Full

Hourly Weather History & Observations

Time (AKDT) Temp. Windchill Dew Point Humidity Pressure Visibility Wind Dir Wind Speed Gust Speed Precip Events Conditions
12:53 AM 1.9 °F -7.6 °F -0.9 °F 88% 30.52 in 10.0 mi North 4.6 mph - N/A   Scattered Clouds
1:53 AM 3.9 °F - -0.0 °F 84% 30.53 in 10.0 mi Calm Calm - N/A   Scattered Clouds
2:53 AM 7.0 °F -6.6 °F 1.0 °F 77% 30.52 in 10.0 mi ENE 9.2 mph - N/A   Clear
3:53 AM 12.9 °F 1.6 °F 5.0 °F 71% 30.52 in 10.0 mi NE 8.1 mph - N/A   Clear
4:53 AM 14.0 °F 0.5 °F 3.0 °F 62% 30.51 in 10.0 mi ENE 11.5 mph - N/A   Clear
5:53 AM 7.0 °F - -0.0 °F 73% 30.52 in 10.0 mi Calm Calm - N/A   Clear
6:53 AM 6.1 °F - -0.0 °F 76% 30.51 in 10.0 mi Calm Calm - N/A   Partly Cloudy
7:53 AM 15.1 °F 6.4 °F 3.9 °F 61% 30.51 in 10.0 mi ENE 5.8 mph - N/A   Partly Cloudy
8:53 AM 14.0 °F 5.1 °F 3.9 °F 64% 30.51 in 10.0 mi ENE 5.8 mph - N/A   Partly Cloudy
9:53 AM 8.1 °F -0.5 °F 1.0 °F 73% 30.50 in 10.0 mi NE 4.6 mph - N/A   Scattered Clouds
10:53 AM 19.9 °F 11.1 °F 7.0 °F 57% 30.49 in 10.0 mi ENE 6.9 mph - N/A   Scattered Clouds
11:53 AM 23.0 °F 13.9 °F 9.0 °F 55% 30.51 in 10.0 mi NE 8.1 mph - N/A   Scattered Clouds
12:53 PM 26.1 °F 17.6 °F 10.0 °F 51% 30.51 in 10.0 mi ENE 8.1 mph - N/A   Scattered Clouds
1:53 PM 28.0 °F 17.5 °F 10.9 °F 49% 30.51 in 10.0 mi ENE 12.7 mph - N/A   Scattered Clouds
2:53 PM 28.9 °F 18.6 °F 12.9 °F 51% 30.50 in 10.0 mi East 12.7 mph - N/A   Scattered Clouds
3:53 PM 30.0 °F 19.5 °F 12.9 °F 49% 30.51 in 10.0 mi East 13.8 mph - N/A   Scattered Clouds
4:53 PM 30.9 °F 25.2 °F 14.0 °F 50% 30.51 in 10.0 mi ENE 5.8 mph - N/A   Scattered Clouds
5:53 PM 30.0 °F 24.1 °F 12.0 °F 47% 30.50 in 10.0 mi East 5.8 mph - N/A   Scattered Clouds
6:53 PM 27.0 °F 20.5 °F 14.0 °F 58% 30.49 in 10.0 mi East 5.8 mph - N/A   Scattered Clouds
7:53 PM 26.1 °F 16.8 °F 12.9 °F 58% 30.47 in 10.0 mi NE 9.2 mph - N/A   Scattered Clouds
8:53 PM 25.0 °F 16.3 °F 12.0 °F 58% 30.46 in 10.0 mi NNE 8.1 mph - N/A   Scattered Clouds
9:53 PM 24.1 °F 11.5 °F 10.0 °F 55% 30.45 in 10.0 mi NE 15.0 mph - N/A   Scattered Clouds
10:53 PM 24.1 °F 11.5 °F 9.0 °F 53% 30.46 in 10.0 mi NE 15.0 mph - N/A   Scattered Clouds
11:53 PM 24.1 °F 13.7 °F 8.1 °F 51% 30.47 in 10.0 mi NE 10.4 mph - N/A   Scattered Clouds